Regional Weather Roundup
Issued by NWS

Home | Current Version | Previous Version | Text Only | Print | Product List | Glossary Off
Versions: 1 2 3 4 5 6 7 8 9 10 11 12 13 14 15 16 17 18 19 20 21 22 23 24 25 26 27 28 29 30 31 32 33 34 35 36 37 38 39 40 41 42 43 44 45 46 47 48 49 50

000
ASUS45 KTFX 161704
RWRMT
MONTANA HOURLY WEATHER ROUNDUP
NATIONAL WEATHER SERVICE GREAT FALLS MT
1104 AM MDT TUE SEP 16 2014

NOTE: "FAIR" INDICATES FEW OR NO CLOUDS BELOW 12000 FEET WITH NO
SIGNIFICANT WEATHER AND/OR OBSTRUCTIONS TO VISIBILITY.

* THESE STATIONS ARE NOT UNDER NWS QUALITY CONTROL. THEY DO NOT
   REPORT WEATHER SUCH AS PRECIPITATION OR FOG.

MTZ001>007-043-161800-
WEST OF THE DIVIDE
CITY           SKY/WX    TMP DP  RH WIND       PRES   REMARKS
KALISPELL      PTCLDY    63  43  48 NE6       30.00F
MISSOULA       PTSUNNY   57  36  46 CALM      30.06S
BUTTE          PTCLDY    57  34  42 CALM      30.16S
MULLAN PASS    CLOUDY    63  34  34 S7        30.10S
* ESSEX        N/A       52  35  52 E1         N/A
* LINCOLN      N/A       50  32  50 NW3        N/A
* LOOKOUT PASS N/A       61  36  39 S6         N/A
* POLSON       N/A       61  44  54 S2         N/A
* RONAN APT    PTSUNNY   64  43  47 N/A        N/A
* SEELEY LAKE  N/A       58  33  39 SW1        N/A
* THOMP F APT  PTCLDY    64  36  35 E2         N/A
$$

MTZ008-052>055-161800-
SOUTHWEST MONTANA
CITY           SKY/WX    TMP DP  RH WIND       PRES   REMARKS
BOZEMAN        PTSUNNY   63  37  38 CALM      30.10F
DILLON         PTCLDY    66  34  31 VRB5      30.14S
W YELLOWSTONE  PTCLDY    54  32  43 CALM      30.27F
* THREE FORKS  PTSUNNY   59  54  84 N/A        N/A
* BOULDER HILL N/A       61  33  35 SW6G12     N/A
* MONIDA PASS  N/A       62  34  35 SE9        N/A
* RAYNOLDS PAS N/A       64  32  30 SE15       N/A
* WHITEHALL    N/A       59  37  44 W3         N/A
* WISE RIVER   N/A       49  35  59 W5         N/A
$$

MTZ009>010-012-014-046-048-049-054-161800-
EAST SLOPES AND CENTRAL MONTANA
CITY           SKY/WX    TMP DP  RH WIND       PRES   REMARKS
CUT BANK       PTSUNNY   66  41  40 W3        29.99F
GREAT FALLS    PTCLDY    68  37  32 SW6       29.99F
HELENA         PTSUNNY   59  37  44 NW5       30.08S
MALMSTROM AFB  PTCLDY    64  43  47 VRB2      30.00F
* CONRAD       PTCLDY    70  45  41 N/A        N/A
* EAST GLACIER N/A       68  33  27 W13G20     N/A
* MONARCH      N/A       65  36  34 S6         N/A
* PENDROY      N/A       70  36  29 S6         N/A
* ROGERS PASS  N/A       66  28  24 SE8G13     N/A
* SAINT MARY   N/A       56  45  67 NW2        N/A
* SWEET GRASS  N/A       70  44  39 SE2        N/A
$$

MTZ011-013-016-021-035-040-045-047-050-051-161800-
NORTH CENTRAL MONTANA
CITY           SKY/WX    TMP DP  RH WIND       PRES   REMARKS
HAVRE          PTCLDY    61  45  56 CALM      29.97F
LEWISTOWN      SUNNY     72  39  30 CALM      30.03F
* CHESTER      N/A       63  46  54 N/A        N/A
* DENTON       N/A       69  39  34 N/A        N/A
* GEYSER       N/A       74  37  26 SW1        N/A
* JUDITH GAP   N/A       70  43  38 SE4        N/A
* LOMA         N/A       56  44  64 SW2        N/A
$$

MTZ017>020-022>027-061-062-161800-
NORTHEAST MONTANA
CITY           SKY/WX    TMP DP  RH WIND       PRES   REMARKS
GLASGOW        PTSUNNY   64  39  40 S9        29.98F
GLENDIVE       SUNNY     64  45  50 S3        30.02S
JORDAN         PTCLDY    63  46  54 E3        29.98F
SIDNEY         SUNNY     61  43  52 CALM      30.01F
WOLF POINT     SUNNY     63  39  41 E3        29.99F
* BEAVER HILL  N/A       67  47  49 NE1        N/A
* CIRCLE       N/A       69  45  42 SE1G10     N/A
* LINDSAY DVD  N/A       67  42  40 SE4G9      N/A
* NAVAJO       N/A       68  38  33 SE5        N/A
* SACO         N/A       59  44  58 E4         N/A
$$

MTZ028>042-056>058-161800-
SOUTHCENTRAL AND SOUTHEAST MONTANA
CITY           SKY/WX    TMP DP  RH WIND       PRES   REMARKS
BAKER          SUNNY     70  50  49 CALM      30.01F
BILLINGS       PTCLDY    68  43  40 SW16      30.02F
LIVINGSTON     PTCLDY    72  36  27 NW13      30.08F
MILES CITY     PTCLDY    61  46  58 CALM      30.01S
* LAUREL APT   PTCLDY    68  43  40 S10G15     N/A
* ROUNDUP APT  PTCLDY    63  39  41 SW9        N/A
* ALZADA       N/A       71  49  46 SW4        N/A
* HYSHAM       N/A       67  39  36 W8         N/A
* LAME DEER    N/A       70  38  31 W8         N/A
* REED POINT   N/A       62  38  41 W5         N/A
* ROSCOE HILL  N/A       74  23  15 N1         N/A
$$

REGIONAL REPORTS...DAKOTAS
CITY           SKY/WX    TMP DP  RH WIND       PRES   REMARKS
WILLISTON      SUNNY     64  39  40 CALM      30.01F
DICKINSON      SUNNY     66  48  52 NE5       29.98F
BEACH          N/A       66  46  49 CALM      30.01F
CROSBY         SUNNY     68  36  31 SW5       30.00F
TIOGA          SUNNY     66  36  33 E3        30.03F
WATFORD CITY   SUNNY     64  36  35 CALM      29.98F
BISMARCK       SUNNY     63  45  52 E3        30.01F
GRAND FORKS    SUNNY     66  45  47 SW10      30.01F
FARGO          SUNNY     64  43  47 SW10      30.05F
BUFFALO SD     SUNNY     70  48  46 VRB3      29.94F
RAPID CITY     SUNNY     73  45  37 CALM      30.03S
$$

REGIONAL REPORTS...WYOMING/IDAHO/WASHINGTON
CITY           SKY/WX    TMP DP  RH WIND       PRES   REMARKS
GILLETTE       PTCLDY    75  43  32 SW8       30.07F
SHERIDAN       PTSUNNY   75  43  32 NE3       30.04F
CODY           PTCLDY    72  39  30 SE5       30.11S
YELLOWSTONE LA PTSUNNY   54  39  57 CALM      30.35S
SALMON         CLOUDY    55  37  51 N3        30.14R
MULLAN PASS    CLOUDY    63  34  34 S7        30.10S
SAND POINT     SUNNY     63  43  48 NE10      29.95F
SPOKANE        PTSUNNY   61  41  48 NE7       29.92R

$$



USA.gov is the U.S. government's official web portal to all federal, state and local government web resources and services.